This demonstration page uses our WeatherBlox Daily Observations layout. Learn more.

Left ArrowRight Arrow

41.55636, -103.73856

Hourly Observations for February 24, 2020

Temp ( °F °C ) Dew Point ( °F °C ) Humidity (%) Winds ( mph kmh ) Pressure ( in mb ) Visibility ( mi km ) Precip ( " mm )
12:58 am 00:58 Mostly Clear 38 3.5 23 -4.9 55 55 S 7 11 30.01 1016 10 16 N/A
1:58 am 01:58 Mostly Cloudy 39 3.7 24 -4.6 55 55 S 9 15 30.01 1016 10 16 N/A
2:58 am 02:58 Mostly Cloudy 38 3.5 24 -4.6 56 56 SSE 10 17 29.96 1015 10 16 N/A
3:58 am 03:58 Clear 36 2.4 23 -5.1 58 58 SSE 13 20 29.96 1014 10 16 N/A
4:58 am 04:58 Clear 35 1.8 22 -5.4 59 59 S 14 22 29.92 1013 10 16 N/A
5:58 am 05:58 Clear 38 3.1 17 -8.3 43 43 SSW 22 35 29.89 1012 10 16 N/A
6:58 am 06:58 Clear 34 0.9 18 -7.7 53 53 SSW 24 39 29.87 1012 10 16 N/A
7:58 am 07:58 Clear 32 undefined 20 -6.5 62 62 SSW 24 39 29.84 1011 10 16 N/A
8:58 am 08:58 Clear 34 0.9 19 -7.1 56 56 SW 24 39 29.83 1010 10 16 N/A
9:58 am 09:58 Clear 31 -0.5 21 -6.3 65 65 SW 16 26 29.81 1010 10 16 N/A
10:58 am 10:58 Clear 29 -1.9 21 -6 74 74 SSW 12 19 29.80 1009 10 16 N/A
11:58 am 11:58 Clear 34 1.2 19 -7.5 53 53 SSW 14 22 29.77 1008 10 16 N/A
12:58 pm 12:58 Clear 29 -1.7 18 -7.7 64 64 SSW 9 15 29.79 1009 10 16 N/A
1:58 pm 13:58 Mostly Cloudy 32 undefined 20 -6.9 60 60 NNW 6 9 29.80 1009 10 16 N/A
2:58 pm 14:58 Mostly Cloudy 40 4.4 23 -4.9 51 51 W 22 35 29.80 1009 10 16 N/A
3:58 pm 15:58 Partly Cloudy 40 4.5 17 -8.5 39 39 WNW 39 63 29.81 1009 10 16 N/A
4:58 pm 16:58 Partly Cloudy 35 1.9 26 -3.5 68 68 NW 32 52 29.86 1011 10 16 N/A
5:58 pm 17:58 Windy with Snow Likely 31 -0.7 25 -3.9 79 79 NW 33 54 29.89 1012 10 16 N/A
6:58 pm 18:58 Windy with Snow Likely 30 -0.9 28 -2.1 92 92 NW 25 41 29.94 1014 3 5 N/A
7:58 pm 19:58 Windy with Snow Likely 30 -1 27 -2.7 88 88 NW 36 57 29.94 1014 3 4 N/A
8:58 pm 20:58 Windy with Snow Likely 32 -0.2 27 -2.9 82 82 NNW 29 46 29.93 1014 6 10 N/A
9:58 pm 21:58 Cloudy with Light Rain 32 0.1 23 -4.8 70 70 NNW 32 52 29.96 1015 10 16 N/A
10:58 pm 22:58 Windy with Rain Showers Likely 32 0.2 23 -5.1 68 68 NNW 28 44 29.99 1016 10 16 N/A
11:58 pm 23:58 Windy with Rain Showers Likely 32 undefined 22 -5.6 66 66 NNW 25 41 29.98 1015 10 16 N/A

Powered by AerisWeather